Vorticity
5 8 10 7 7 7 8 7 7 6 7 7 7 8 8 8 8 7 7 7 7 8 8 9 9 8 7 7 8 8 8 9 9 9 9 8 8 8 9 11 7 7 7
5 7 11 7 6 7 7 7 6 6 7 7 7 7 7 7 8 8 8 7 7 7 7 8 9 9 9 8 7 7 8 8 9 8 8 8 9 9 9 8 7 6 6
5 7 10 7 6 7 8 7 6 6 7 6 6 6 6 6 6 7 8 8 8 7 8 8 7 7 8 9 9 8 9 8 8 8 8 8 8 8 7 7 7 7 7
5 7 11 7 6 7 7 7 6 6 7 7 7 6 6 6 6 6 6 6 7 7 7 7 8 8 7 7 8 8 9 11 10 9 8 9 9 8 9 9 10 10 11
6 7 10 7 6 6 7 7 7 6 7 7 7 6 6 6 6 6 6 6 6 6 7 7 7 8 7 7 7 6 7 7 8 9 9 7 7 7 8 8 8 7 7
6 8 10 7 6 7 7 7 7 8 7 7 7 8 7 6 6 6 6 6 6 6 6 6 7 7 7 8 8 8 8 8 7 8 8 8 8 8 8 8 7 7 6
7 10 9 6 6 6 6 8 8 7 6 6 6 6 7 7 7 6 6 6 6 6 6 6 7 7 6 7 8 7 8 8 9 10 10 9 8 8 8 8 9 9 7
7 11 7 6 6 6 6 7 7 6 6 6 6 6 6 7 6 6 7 6 7 7 7 7 6 7 7 6 6 6 6 5 5 6 6 7 8 9 9 9 8 8 9
8 10 7 6 7 6 7 6 6 6 6 6 6 6 8 6 6 7 8 7 7 7 8 7 7 7 6 6 5 4 5 5 4 4 5 4 5 5 5 6 7 8 9
9 9 7 6 7 6 6 6 7 5 4 4 5 5 6 6 6 8 7 8 8 8 8 7 7 5 5 5 4 3 3 4 5 5 5 5 5 5 4 4 5 6 6
10 8 7 7 6 6 6 6 2 4 4 5 6 6 7 7 6 7 6 7 8 8 7 6 5 5 4 4 3 4 4 4 4 4 4 5 5 6 7 6 6 7 8
10 8 7 7 6 6 6 2 3 3 3 5 5 6 7 7 7 7 8 7 7 7 7 6 5 5 5 5 5 5 5 4 4 4 4 4 5 5 7 7 7 6 7
9 8 8 7 6 6 2 2 2 3 4 4 6 8 9 9 9 8 9 9 9 7 7 8 9 8 7 7 7 7 6 6 5 5 4 4 5 5 5 6 7 8 7
9 9 8 6 6 3 2 3 4 4 4 6 9 10 9 9 9 8 8 7 9 9 9 8 7 8 8 6 5 4 4 4 4 4 4 4 4 5 5 6 6 7 8
9 8 7 5 3 3 3 4 4 5 7 10 11 11 9 9 9 8 9 8 9 10 10 6 2 1 2 3 4 4 4 4 5 5 5 4 4 5 5 4 5 6 6
8 6 4 4 4 3 4 4 6 9 13 13 12 11 10 10 10 10 9 6 4 3 4 4 4 4 3 3 3 4 5 5 5 5 6 6 6 6 5 5 5 5 5
6 5 5 4 4 4 5 9 13 15 14 12 11 9 6 4 3 4 5 5 5 4 4 5 7 8 8 7 6 5 6 7 7 7 7 7 8 8 8 7 7 7 7
5 5 4 4 5 8 11 15 12 10 7 6 5 6 6 6 5 4 4 5 6 7 6 6 6 8 8 10 10 10 9 8 9 9 10 10 10 9 10 11 10 9 9
4 4 5 7 11 14 11 9 7 6 7 7 6 4 4 5 6 7 6 6 7 8 8 7 7 7 8 10 9 10 11 12 12 13 14 14 14 14 13 13 12 12 11
4 6 11 12 10 8 8 7 7 7 5 4 6 6 6 5 5 7 7 7 7 7 7 8 9 10 11 13 13 15 15 13 15 15 15 17 18 17 16 16 16 15 15
9 12 10 9 8 7 7 7 4 5 6 6 5 4 6 6 7 8 7 8 10 12 12 13 12 12 12 13 13 15 15 16 21 20 22 19 21 21 23 19 16 14 15
9 9 8 8 7 7 5 5 5 6 5 5 7 6 7 8 9 11 12 13 13 14 15 15 16 17 15 14 12 12 10 9 12 10 12 14 15 15 15 15 17 17 19
8 8 7 6 7 4 6 6 5 5 6 5 6 6 9 10 11 12 14 16 17 17 16 14 12 10 10 11 12 13 13 12 12 12 12 14 13 14 13 13 13 14 18
8 7 6 6 5 5 5 5 5 5 5 6 7 10 11 14 16 18 18 18 17 13 11 10 10 9 9 11 15 17 10 10 11 12 10 15 13 14 15 15 17 20 17
7 6 6 5 6 6 6 6 6 6 7 10 12 14 15 15 15 14 13 10 11 14 9 11 13 17 21 22 19 14 13 11 10 11 9 10 14 14 15 19 16 13 13
6 6 4 6 6 6 5 5 6 7 11 13 17 15 15 13 11 9 9 15 11 12 11 15 16 16 16 16 16 13 12 11 11 14 14 19 18 19 10 13 14 15 17
Height
3170 3170 3168 3167 3166 3165 3164 3163 3163 3162 3160 3159 3157 3155 3154 3153 3152 3150 3149 3148 3146 3144 3143 3142 3142 3142 3141 3140 3140 3139 3138 3137 3137 3136 3136 3136 3136 3135 3135 3134 3134 3134 3133
3168 3168 3166 3165 3164 3164 3163 3162 3161 3160 3159 3158 3156 3155 3154 3153 3152 3150 3149 3147 3146 3144 3143 3142 3141 3141 3140 3139 3138 3137 3137 3136 3135 3134 3134 3133 3132 3132 3131 3131 3130 3129 3129
3166 3166 3164 3164 3163 3163 3162 3161 3160 3159 3158 3157 3156 3155 3153 3152 3151 3150 3148 3147 3145 3144 3142 3141 3141 3139 3138 3138 3137 3135 3135 3134 3133 3132 3131 3131 3129 3129 3128 3127 3127 3126 3125
3165 3164 3162 3162 3161 3161 3161 3160 3159 3158 3157 3156 3155 3154 3153 3152 3151 3149 3148 3146 3145 3143 3141 3140 3139 3138 3137 3136 3135 3134 3133 3132 3131 3131 3130 3129 3127 3126 3125 3124 3124 3123 3122
3162 3160 3159 3160 3159 3159 3159 3158 3157 3156 3155 3155 3154 3152 3151 3150 3150 3148 3147 3145 3144 3142 3141 3140 3137 3137 3135 3135 3134 3132 3131 3130 3129 3128 3127 3126 3124 3123 3122 3121 3120 3119 3117
3158 3157 3156 3157 3157 3157 3156 3156 3155 3153 3153 3153 3152 3151 3150 3149 3148 3147 3145 3144 3142 3141 3139 3138 3137 3135 3134 3132 3131 3130 3129 3128 3127 3126 3125 3123 3122 3120 3119 3117 3116 3114 3113
3155 3153 3153 3154 3154 3154 3154 3153 3152 3151 3151 3150 3150 3149 3148 3147 3146 3144 3143 3142 3141 3139 3137 3136 3135 3133 3132 3130 3129 3127 3126 3125 3124 3123 3122 3120 3119 3117 3115 3113 3112 3110 3108
3150 3149 3149 3151 3151 3150 3150 3151 3150 3149 3148 3147 3147 3146 3145 3145 3143 3141 3140 3139 3138 3137 3135 3134 3132 3131 3130 3128 3126 3125 3123 3122 3120 3119 3118 3116 3115 3113 3111 3110 3108 3106 3104
3145 3145 3146 3147 3147 3147 3147 3148 3148 3147 3146 3145 3144 3143 3142 3141 3140 3138 3137 3135 3134 3133 3132 3131 3129 3128 3126 3125 3123 3122 3120 3119 3117 3115 3114 3112 3111 3109 3108 3106 3104 3102 3100
3140 3141 3142 3143 3144 3143 3144 3144 3144 3144 3143 3142 3141 3139 3138 3137 3136 3135 3134 3132 3131 3129 3128 3126 3125 3124 3122 3121 3120 3118 3116 3115 3113 3111 3110 3108 3107 3105 3103 3101 3099 3096 3094
3135 3137 3138 3139 3139 3140 3140 3140 3141 3140 3139 3138 3137 3136 3134 3133 3132 3131 3129 3128 3126 3125 3124 3122 3121 3119 3117 3116 3114 3113 3111 3109 3107 3106 3104 3103 3101 3100 3098 3096 3093 3091 3089
3131 3132 3134 3135 3135 3135 3136 3136 3136 3135 3134 3133 3132 3131 3129 3128 3127 3126 3125 3124 3123 3120 3118 3117 3115 3113 3111 3110 3108 3106 3105 3103 3101 3099 3097 3095 3094 3093 3092 3090 3088 3085 3082
3126 3127 3129 3130 3131 3131 3131 3132 3131 3130 3129 3128 3127 3125 3123 3122 3120 3119 3118 3117 3117 3118 3115 3111 3110 3107 3104 3102 3100 3099 3097 3095 3094 3092 3089 3087 3086 3085 3084 3083 3081 3079 3076
3121 3122 3124 3125 3126 3126 3126 3126 3126 3125 3123 3122 3120 3119 3117 3115 3114 3112 3111 3110 3108 3109 3109 3106 3104 3101 3099 3096 3093 3091 3089 3087 3085 3083 3081 3079 3077 3075 3074 3073 3072 3071 3069
3115 3117 3119 3120 3121 3121 3121 3120 3120 3119 3117 3115 3114 3112 3110 3109 3107 3106 3103 3101 3099 3098 3100 3100 3096 3094 3091 3089 3084 3082 3080 3077 3074 3072 3070 3069 3067 3065 3063 3062 3061 3061 3060
3110 3112 3114 3115 3116 3115 3115 3114 3113 3111 3110 3108 3107 3106 3105 3103 3101 3099 3096 3094 3092 3088 3087 3091 3088 3084 3081 3077 3074 3071 3069 3066 3064 3061 3059 3056 3055 3052 3050 3049 3049 3048 3048
3105 3107 3108 3109 3109 3108 3107 3106 3105 3104 3103 3102 3101 3100 3098 3096 3094 3092 3089 3087 3084 3080 3075 3077 3077 3075 3071 3066 3063 3059 3055 3051 3050 3048 3045 3043 3041 3038 3036 3035 3034 3035 3035
3100 3101 3102 3102 3102 3101 3100 3099 3098 3097 3097 3096 3094 3093 3091 3089 3087 3085 3082 3079 3076 3071 3065 3061 3061 3062 3058 3055 3051 3048 3043 3038 3034 3033 3030 3028 3026 3023 3022 3020 3019 3019 3019
3093 3094 3094 3094 3094 3093 3093 3092 3092 3091 3090 3089 3087 3086 3084 3082 3079 3076 3073 3070 3066 3062 3056 3050 3044 3042 3040 3040 3035 3033 3029 3027 3023 3017 3015 3013 3009 3008 3006 3005 3003 3002 3001
3086 3087 3087 3087 3087 3086 3086 3085 3085 3084 3083 3081 3080 3078 3075 3072 3069 3066 3063 3059 3054 3050 3046 3041 3033 3026 3023 3021 3017 3013 3011 3011 3005 3005 3001 2997 2994 2993 2990 2987 2985 2984 2983
3079 3079 3080 3080 3080 3079 3079 3079 3078 3077 3075 3073 3070 3068 3065 3062 3058 3054 3050 3046 3041 3036 3032 3027 3021 3015 3011 3008 3003 2999 2994 2988 2987 2988 2985 2982 2981 2977 2976 2973 2969 2966 2965
3071 3072 3073 3073 3073 3073 3072 3071 3070 3069 3067 3065 3062 3058 3054 3051 3047 3042 3037 3032 3027 3022 3019 3013 3009 3004 3000 2996 2991 2986 2980 2976 2971 2973 2967 2965 2967 2964 2962 2958 2955 2953 2951
3065 3066 3067 3067 3067 3066 3065 3063 3062 3060 3058 3055 3051 3047 3044 3039 3034 3029 3025 3021 3017 3012 3007 3001 2997 2994 2989 2986 2980 2975 2970 2966 2962 2961 2954 2948 2952 2948 2948 2945 2944 2941 2938
3059 3060 3060 3060 3059 3058 3057 3055 3053 3050 3047 3043 3039 3035 3030 3027 3023 3018 3014 3010 3008 3004 2999 2995 2990 2985 2979 2974 2970 2964 2959 2955 2953 2952 2946 2939 2942 2936 2933 2933 2932 2929 2927
3052 3053 3053 3052 3051 3050 3048 3046 3042 3039 3036 3032 3028 3023 3019 3015 3011 3008 3004 3000 2998 2996 2991 2986 2981 2976 2972 2967 2962 2957 2953 2947 2943 2942 2938 2931 2931 2924 2922 2922 2921 2919 2916
3045 3045 3045 3044 3044 3042 3039 3036 3032 3029 3026 3022 3018 3013 3009 3005 3001 2998 2994 2991 2988 2984 2981 2978 2974 2969 2964 2959 2955 2950 2944 2939 2934 2930 2929 2923 2919 2915 2909 2911 2909 2907 2905